BEIDOU-3 M17 (C36)

Last updated on Mon Jun 22 2026 00:03:31 GMT+0000 (Coordinated Universal Time)

1 43706U 18093A 26172.18891355 .00000078 00000+0 00000+0 0 9992 2 43706 54.1692 182.1601 0010176 292.3320 147.9319 1.86228431 51616
UTC large
Height (km)
Speed (km/s)
/
Latitude / Longitude
Inclination (degrees)
Orbital Period (minutes)
Azimuth
Elevation
Range (km)
Doppler Factor

Next 0 passes for location: London (51.5072 / 0.1276)

No passes found over London.
BEIDOU-3 M17 (C36)